Location: Newark
(43.6583°N, 1.6617°E)
Time: 21:42:14
(UTC+00:00)

Vanguard 1 Rocket - Pass Details

Date: 27 August 2019
Orbit: 652 x 4225 km, 34.3° (Epoch: 15 September)

Event Time Altitude Azimuth Distance (km) Brightness Sun altitude
Rises 04:08:35 0° 258° (WSW) 3,003 - -11.4°
Reaches altitude 10° 04:10:55 10° 245° (WSW) 2,196 - -11.0°
Exits shadow 04:11:44 14° 238° (WSW) 1,963 8.5 -10.9°
Maximum altitude 04:15:04 28° 186° (S) 1,599 8.4 -10.3°
Drops below altitude 10° 04:20:57 10° 130° (SE) 3,186 10.5 -9.3°
Sets 04:25:08 0° 121° (ESE) 4,700 11.6 -8.7°
